Simultaneous Nadir Overpasses (SNOs) Predictions

Prediction of SNOs between GOES-14 and NOAA-20 Satellite Orbit:

Table of predicted SNOs for the next 14.0 days since TLE Epoch: 11/29/2019
Index Date Time (GOES-14) GOES-14 Lat,Lon NOAA-20 Lat,Lon Distance(km) Time Diff (sec)
1 11/30/2019 08:32:26 0.04,-104.26 0.52,-106.52 256.88 80
2 12/01/2019 08:11:01 0.06,-104.25 -0.44,-101.98 259.04 80
3 12/02/2019 20:32:57 -0.03,-104.05 -0.74,-107.28 367.88 80
4 12/03/2019 20:16:51 -0.04,-104.06 0.23,-102.74 149.55 80
5 12/05/2019 08:38:41 0.02,-104.28 0.86,-108.03 427.52 80
6 12/06/2019 08:17:16 0.03,-104.27 -0.17,-103.50 88.82 80
7 12/08/2019 20:20:27 -0.02,-104.06 -0.05,-104.26 22.51 80
8 12/09/2019 20:04:22 -0.03,-104.07 0.92, -99.72 495.06 80
9 12/11/2019 08:26:11 0.02,-104.29 0.16,-105.01 81.19 80
10 12/12/2019 08:04:45 0.03,-104.28 -0.81,-100.46 434.88 80




NCC Satellite Simultaneous Nadir Overpasses (SNOs) Prediction Service
